Stündliche Wetter Ceber

Heute, 20 Oktober, Dienstag

Zeit Temperatur Niederschläge Wind Luftdruck Luftfeuchtigkeit
00:00 +6°C° 0 mm 1 m/S 741 mmHg 85%
01:00 +5°C° 0 mm 0 m/S 741 mmHg 86%
02:00 +6°C° 0 mm 1 m/S 740 mmHg 87%
03:00 +6°C° 0 mm 1 m/S 740 mmHg 88%
04:00 +5°C° 0 mm 1 m/S 740 mmHg 88%
05:00 +5°C° 0 mm 1 m/S 740 mmHg 88%
06:00 +5°C° 0 mm 1 m/S 741 mmHg 88%
07:00 +5°C° 0 mm 1 m/S 741 mmHg 88%
08:00 +7°C° 0 mm 1 m/S 741 mmHg 82%
09:00 +7°C° 0 mm 2 m/S 741 mmHg 76%
10:00 +9°C° 0 mm 2 m/S 741 mmHg 70%
11:00 +9°C° 0 mm 2 m/S 741 mmHg 68%
12:00 +10°C° 0 mm 3 m/S 740 mmHg 65%
13:00 +11°C° 0 mm 3 m/S 740 mmHg 63%
14:00 +11°C° 0 mm 3 m/S 740 mmHg 67%
15:00 +10°C° 0 mm 3 m/S 739 mmHg 71%
16:00 +9°C° 0 mm 3 m/S 739 mmHg 75%
17:00 +8°C° 0 mm 4 m/S 738 mmHg 76%
18:00 +7°C° 0 mm 4 m/S 738 mmHg 77%
19:00 +7°C° 0 mm 5 m/S 738 mmHg 79%
20:00 +6°C° 0 mm 5 m/S 738 mmHg 79%
21:00 +6°C° 0 mm 4 m/S 737 mmHg 80%
22:00 +5°C° 0 mm 4 m/S 737 mmHg 80%
23:00 +5°C° 0 mm 3 m/S 737 mmHg 80%

Morgen, 21 Oktober, Mittwoch

Zeit Temperatur Niederschläge Wind Luftdruck Luftfeuchtigkeit
00:00 +5°C° 0 mm 3 m/S 737 mmHg 79%
01:00 +5°C° 0 mm 3 m/S 737 mmHg 79%
02:00 +5°C° 0 mm 3 m/S 737 mmHg 79%
03:00 +5°C° 0 mm 3 m/S 736 mmHg 79%
04:00 +5°C° 0 mm 3 m/S 736 mmHg 79%
05:00 +5°C° 0 mm 3 m/S 736 mmHg 78%
06:00 +5°C° 0 mm 3 m/S 736 mmHg 76%
07:00 +5°C° 0 mm 3 m/S 736 mmHg 75%
08:00 +8°C° 0 mm 3 m/S 736 mmHg 72%
09:00 +9°C° 0 mm 3 m/S 736 mmHg 68%
10:00 +10°C° 0 mm 4 m/S 736 mmHg 64%
11:00 +11°C° 0 mm 3 m/S 735 mmHg 63%
12:00 +12°C° 0 mm 3 m/S 735 mmHg 61%
13:00 +14°C° 0 mm 2 m/S 735 mmHg 59%
14:00 +13°C° 0 mm 2 m/S 735 mmHg 62%
15:00 +13°C° 0 mm 2 m/S 735 mmHg 65%
16:00 +12°C° 0 mm 2 m/S 735 mmHg 68%
17:00 +10°C° 0 mm 2 m/S 735 mmHg 69%
18:00 +10°C° 0 mm 2 m/S 735 mmHg 71%
19:00 +9°C° 0 mm 2 m/S 735 mmHg 72%
20:00 +9°C° 0 mm 2 m/S 735 mmHg 75%
21:00 +8°C° 0 mm 3 m/S 735 mmHg 78%
22:00 +8°C° 0 mm 3 m/S 735 mmHg 81%
23:00 +8°C° 0 mm 3 m/S 735 mmHg 82%

übermorgen, 22 Oktober, Donnerstag

Zeit Temperatur Niederschläge Wind Luftdruck Luftfeuchtigkeit
00:00 +8°C° 0 mm 3 m/S 735 mmHg 83%
01:00 +8°C° 0 mm 3 m/S 736 mmHg 85%
02:00 +8°C° 0 mm 3 m/S 736 mmHg 84%
03:00 +8°C° 0 mm 3 m/S 736 mmHg 84%
04:00 +7°C° 0 mm 3 m/S 736 mmHg 84%
05:00 +8°C° 0 mm 3 m/S 736 mmHg 85%
06:00 +8°C° 0 mm 3 m/S 736 mmHg 85%
07:00 +8°C° 0 mm 3 m/S 736 mmHg 86%
08:00 +9°C° 0 mm 3 m/S 736 mmHg 80%
09:00 +11°C° 0 mm 3 m/S 736 mmHg 74%
10:00 +13°C° 0 mm 4 m/S 736 mmHg 68%
11:00 +13°C° 0 mm 3 m/S 736 mmHg 67%
12:00 +14°C° 0 mm 3 m/S 736 mmHg 65%
13:00 +16°C° 0 mm 3 m/S 736 mmHg 64%
14:00 +16°C° 0 mm 3 m/S 736 mmHg 68%
15:00 +14°C° 0 mm 3 m/S 735 mmHg 72%
16:00 +14°C° 0 mm 2 m/S 735 mmHg 76%
17:00 +13°C° 0 mm 2 m/S 735 mmHg 77%
18:00 +13°C° 0 mm 2 m/S 735 mmHg 79%
19:00 +12°C° 0 mm 2 m/S 735 mmHg 80%
20:00 +12°C° 0 mm 2 m/S 735 mmHg 82%
21:00 +10°C° 0 mm 2 m/S 735 mmHg 83%
22:00 +10°C° 0 mm 2 m/S 735 mmHg 85%
23:00 +10°C° 0 mm 2 m/S 735 mmHg 86%

23 Oktober, Freitag

Zeit Temperatur Niederschläge Wind Luftdruck Luftfeuchtigkeit
00:00 +10°C° 0 mm 3 m/S 735 mmHg 87%
01:00 +10°C° 0 mm 3 m/S 734 mmHg 88%
02:00 +9°C° 0 mm 3 m/S 734 mmHg 88%
03:00 +9°C° 0 mm 3 m/S 734 mmHg 89%
04:00 +9°C° 0 mm 3 m/S 734 mmHg 89%
05:00 +9°C° 0 mm 3 m/S 733 mmHg 88%
06:00 +9°C° 0 mm 3 m/S 733 mmHg 87%
07:00 +9°C° 0 mm 3 m/S 733 mmHg 86%
08:00 +10°C° 0 mm 4 m/S 733 mmHg 81%
09:00 +11°C° 0 mm 4 m/S 733 mmHg 76%
10:00 +13°C° 0 mm 5 m/S 733 mmHg 71%
11:00 +14°C° 0 mm 5 m/S 733 mmHg 70%
12:00 +15°C° 0 mm 5 m/S 733 mmHg 69%
13:00 +16°C° 0 mm 5 m/S 732 mmHg 67%
14:00 +15°C° 0 mm 4 m/S 732 mmHg 71%
15:00 +14°C° 0 mm 4 m/S 732 mmHg 74%
16:00 +14°C° 0 mm 3 m/S 732 mmHg 78%
17:00 +13°C° 0 mm 3 m/S 733 mmHg 79%
18:00 +13°C° 0 mm 3 m/S 733 mmHg 80%
19:00 +12°C° 0 mm 3 m/S 733 mmHg 81%
20:00 +12°C° 0 mm 3 m/S 733 mmHg 83%
21:00 +12°C° 0 mm 3 m/S 733 mmHg 84%
22:00 +12°C° 0 mm 3 m/S 733 mmHg 85%
23:00 +12°C° 0.5 mm 3 m/S 733 mmHg 88%

24 Oktober, Samstag

Zeit Temperatur Niederschläge Wind Luftdruck Luftfeuchtigkeit
00:00 +12°C° 0.5 mm 4 m/S 733 mmHg 91%
01:00 +12°C° 0.5 mm 4 m/S 733 mmHg 94%
02:00 +12°C° 0.3 mm 4 m/S 733 mmHg 93%
03:00 +12°C° 0.3 mm 4 m/S 733 mmHg 93%
04:00 +12°C° 0.3 mm 4 m/S 733 mmHg 92%
05:00 +11°C° 0 mm 4 m/S 733 mmHg 91%
06:00 +11°C° 0 mm 4 m/S 733 mmHg 91%
07:00 +11°C° 0 mm 4 m/S 733 mmHg 90%
08:00 +10°C° 0 mm 5 m/S 733 mmHg 84%
09:00 +10°C° 0 mm 6 m/S 734 mmHg 79%
10:00 +11°C° 0 mm 7 m/S 734 mmHg 74%
11:00 +11°C° 0 mm 7 m/S 734 mmHg 73%
12:00 +11°C° 0 mm 6 m/S 734 mmHg 72%
13:00 +10°C° 0 mm 6 m/S 734 mmHg 71%
14:00 +10°C° 0.1 mm 6 m/S 734 mmHg 71%
15:00 +10°C° 0.1 mm 5 m/S 734 mmHg 71%
16:00 +9°C° 0.1 mm 5 m/S 734 mmHg 71%
17:00 +9°C° 0 mm 5 m/S 735 mmHg 73%
18:00 +8°C° 0 mm 5 m/S 735 mmHg 74%
19:00 +7°C° 0 mm 4 m/S 736 mmHg 75%
20:00 +6°C° 0 mm 4 m/S 736 mmHg 76%
21:00 +6°C° 0 mm 4 m/S 737 mmHg 77%
22:00 +5°C° 0 mm 4 m/S 737 mmHg 78%
23:00 +5°C° 0 mm 3 m/S 737 mmHg 80%

25 Oktober, Sonntag

Zeit Temperatur Niederschläge Wind Luftdruck Luftfeuchtigkeit
00:00 +5°C° 0 mm 3 m/S 737 mmHg 82%
01:00 +4°C° 0 mm 3 m/S 737 mmHg 84%
02:00 +4°C° 0 mm 3 m/S 737 mmHg 86%
03:00 +4°C° 0 mm 3 m/S 738 mmHg 88%
04:00 +3°C° 0 mm 3 m/S 738 mmHg 89%
05:00 +4°C° 0 mm 2 m/S 738 mmHg 89%
06:00 +4°C° 0 mm 2 m/S 738 mmHg 89%
07:00 +4°C° 0 mm 2 m/S 738 mmHg 89%
08:00 +6°C° 0 mm 2 m/S 738 mmHg 81%
09:00 +8°C° 0 mm 2 m/S 738 mmHg 74%
10:00 +10°C° 0 mm 1 m/S 739 mmHg 67%
11:00 +11°C° 0 mm 1 m/S 738 mmHg 63%
12:00 +12°C° 0 mm 1 m/S 738 mmHg 59%
13:00 +11°C° 0 mm 0 m/S 738 mmHg 55%
14:00 +11°C° 0 mm 1 m/S 738 mmHg 59%
15:00 +10°C° 0 mm 1 m/S 737 mmHg 63%
16:00 +10°C° 0 mm 1 m/S 737 mmHg 67%
17:00 +9°C° 0 mm 1 m/S 737 mmHg 70%
18:00 +7°C° 0 mm 2 m/S 737 mmHg 73%
19:00 +6°C° 0 mm 2 m/S 737 mmHg 76%
20:00 +6°C° 0 mm 2 m/S 737 mmHg 78%
21:00 +6°C° 0 mm 2 m/S 737 mmHg 80%
22:00 +4°C° 0 mm 3 m/S 737 mmHg 82%
23:00 +4°C° 0 mm 3 m/S 737 mmHg 83%

26 Oktober, Montag

Zeit Temperatur Niederschläge Wind Luftdruck Luftfeuchtigkeit
00:00 +4°C° 0 mm 3 m/S 736 mmHg 85%
01:00 +4°C° 0 mm 3 m/S 736 mmHg 86%
02:00 +3°C° 0 mm 4 m/S 736 mmHg 86%
03:00 +3°C° 0 mm 4 m/S 735 mmHg 86%
04:00 +3°C° 0 mm 4 m/S 735 mmHg 87%
05:00 +3°C° 0 mm 4 m/S 735 mmHg 86%
06:00 +3°C° 0 mm 4 m/S 734 mmHg 86%
07:00 +3°C° 0 mm 4 m/S 734 mmHg 85%
08:00 +5°C° 0 mm 5 m/S 734 mmHg 79%
09:00 +7°C° 0 mm 5 m/S 734 mmHg 73%
10:00 +9°C° 0 mm 6 m/S 734 mmHg 66%
11:00 +10°C° 0 mm 6 m/S 733 mmHg 64%
12:00 +11°C° 0 mm 6 m/S 733 mmHg 62%
13:00 +13°C° 0 mm 5 m/S 733 mmHg 61%
14:00 +12°C° 0 mm 5 m/S 732 mmHg 65%
15:00 +12°C° 0 mm 4 m/S 732 mmHg 70%
16:00 +11°C° 0 mm 4 m/S 731 mmHg 75%
17:00 +10°C° 0 mm 4 m/S 731 mmHg 78%
18:00 +10°C° 0 mm 4 m/S 731 mmHg 80%
19:00 +8°C° 0 mm 4 m/S 731 mmHg 82%
20:00 +9°C° 0 mm 3 m/S 731 mmHg 83%
21:00 +9°C° 0 mm 3 m/S 731 mmHg 83%
22:00 +9°C° 0 mm 3 m/S 731 mmHg 84%
23:00 +9°C° 0 mm 2 m/S 731 mmHg 84%
Mehr zeigen